Flag for Germany Weather past 2 weeks in Berlin, Berlin, Germany

Now
50 °F

Cool.


Feels Like: 50 °F
Forecast: 41 / 53 °F
Wind: 2 mph from Southeast

Location: Berlin-Tempelhof

Current Time: Oct 23, 2014 at 8:51:22 PM

Latest Report: Oct 23, 2014 at 8:00 PM


Visibility: N/A

Pressure: 30.23 "Hg

Humidity: 87%

Dew point: 46 °F

Location of BerlinLocation

Historic Weather in Berlin — Graph

°F

Berlin temperature yesterday

Maximum temperature yesterday: 53 °F (at 12:00 AM)
Minimum temperature yesterday: 48 °F (at 8:00 AM)
Average temperature yesterday: 50 °F

Past Weeks' High & Low Weather Summary

 TemperatureHumidityPressure
High72 °F (Oct 19, 4:00 PM)99% (Oct 17, 12:00 AM)30.25 "Hg (Oct 17, 12:00 AM)
Low48 °F (Oct 22, 8:00 AM)57% (Oct 15, 3:00 PM)29.44 "Hg (Oct 21, 10:00 PM)
Average58 °F85%29.88 "Hg
* Reported Oct 8 8:00 PM — Oct 23 8:00 PM, Berlin, Weather by CustomWeather, © 2014

Note: Actual official high and low records may vary slightly from our data, if they occured in-between our weather recording intervals... More about our weather records

Advertising

Berlin weather history for previous 24 hours

 ConditionsComfort  
Time TempWeatherWind HumidityBarometerVisibility
8:00 PM
Oct 23
50 °FCool.2 mph87%30.23 "HgN/A
7:00 PM50 °FCool.2 mph85%30.22 "HgN/A
6:00 PM51 °FCool.2 mph84%30.21 "HgN/A
5:00 PM52 °FCool.3 mph83%30.21 "HgN/A
4:00 PM52 °FCool.2 mph83%30.21 "HgN/A
3:00 PM52 °FCool.2 mph83%30.19 "HgN/A
2:00 PM52 °FCool.5 mph82%30.18 "HgN/A
1:00 PM52 °FCool.5 mph82%30.17 "HgN/A
12:00 PM53 °FCool.3 mph83%30.16 "HgN/A
11:00 AM53 °FCool.3 mph84%30.13 "HgN/A
10:00 AM53 °FCool.3 mph89%30.11 "HgN/A
9:00 AM53 °FCool.3 mph89%30.10 "HgN/A
8:00 AMN/APassing clouds.14 mphN/AN/A2 mi
7:00 AM53 °FCool.5 mph93%30.05 "HgN/A
6:00 AM52 °FCool.5 mph95%30.03 "HgN/A
5:00 AM53 °FCool.5 mph95%30.01 "HgN/A
4:00 AM52 °FCool.5 mph96%29.99 "HgN/A
3:00 AM53 °FCool.5 mph95%29.98 "HgN/A
2:00 AM52 °FCool.5 mph95%29.96 "HgN/A
1:00 AM53 °FCool.5 mph95%29.94 "HgN/A
12:00 AM53 °FCool.6 mph94%29.93 "HgN/A
11:00 PM
Oct 22
53 °FCool.6 mph94%29.90 "HgN/A
10:00 PM52 °FCool.5 mph94%29.87 "HgN/A
9:00 PM52 °FCool.6 mph95%29.85 "HgN/A
8:00 PM51 °FCool.5 mph92%29.82 "HgN/A
Weather by CustomWeather, © 2014

See weather overviewHow to use our weather pages